Location: Dackenheim
(49.5215°N, 8.1854°E)
Time: 15:41:28
(UTC+00:00)

NOAA 15 - Visible Passes

Search period start: 16 March 2026 00:00
Search period end: 26 March 2026 00:00
Orbit: 795 x 808 km, 98.5° (Epoch: 16 March)

Date Brightness Start Highest point End Pass type
(mag) Time Alt. Az. Time Alt. Az. Time Alt. Az.
16 Mar 7.0 18:52:23 10° SSW 18:56:40 25° W 19:01:01 10° NW visible
17 Mar 6.2 18:25:16 10° SSW 18:30:13 40° W 18:35:13 10° NNW visible
18 Mar 5.2 17:58:37 10° S 18:03:51 65° WSW 18:09:09 10° NNW visible
19 Mar 7.5 19:14:36 10° SW 19:17:58 17° W 19:21:22 10° NW visible
20 Mar 6.9 18:46:58 10° SSW 18:51:26 27° W 18:55:55 10° NW visible
21 Mar 6.0 18:19:57 10° S 18:24:59 44° W 18:30:04 10° NNW visible
22 Mar 7.9 19:37:54 10° W 19:39:21 11° W 19:40:47 10° WNW visible
23 Mar 7.4 19:09:04 10° SW 19:12:42 19° W 19:16:23 10° NW visible
24 Mar 6.7 18:41:35 10° SSW 18:46:11 30° W 18:50:49 10° NNW visible
25 Mar 5.8 18:14:40 10° S 18:19:46 48° W 18:24:55 10° NNW visible
